Regional Weather Roundup
Issued by NWS Newport/Morehead, NC

Current Version | Previous Version | Text Only | Print | Product List | Glossary On
Versions: 1 2 3 4 5 6 7 8 9 10 11 12 13 14 15 16 17 18 19 20 21 22 23 24 25 26 27 28 29 30 31 32 33 34 35 36 37 38 39 40 41 42 43 44 45 46 47 48 49 50
000 ASUS42 KMHX 251925 RWRMHX WEATHER ROUNDUP FOR EASTERN NORTH CAROLINA NATIONAL WEATHER SERVICE NEWPORT/MOREHEAD CITY NC 300 PM EDT MON MAY 25 2015 NOTE: "FAIR" INDICATES FEW OR NO CLOUDS BELOW 12,000 FEET WITH NO SIGNIFICANT WEATHER AND/OR OBSTRUCTIONS TO VISIBILITY NCZ015>017-031-032-045>047-102-103-252000- NORTH COAST CITY SKY/WX TMP DP RH WIND PRES REMARKS EDENTON N/A 82 60 47 S10G17 30.30F ELIZABETH CITY SUNNY 79 61 53 E13 30.31F KITTY HAWK CLEAR 78 57 49 SE8 30.32F MANTEO SUNNY 76 60 57 S13 30.33F $$ NCZ045>047-081-094-103-104-252000- CENTRAL COAST CITY SKY/WX TMP DP RH WIND PRES REMARKS FRISCO SUNNY 78 57 48 S9 30.34F SWANQUARTER N/A 79 N/A N/A S13 30.30S $$ NCZ095-097-098-100-101-252000- SOUTHERN COAST CITY SKY/WX TMP DP RH WIND PRES REMARKS BEAUFORT SUNNY 77 62 59 S10 30.33F CEDAR ISLAND N/A 79 N/A N/A SE12 30.36F JACKSONVILLE MOSUNNY 79 59 50 SE9 30.32F PINEY ISLAND PTCLDY N/A N/A N/A SE10 30.33F WILMINGTON MOSUNNY 79 61 53 SE7 30.31F $$ NCZ011>013-027>030-043-044-078>080-089-090>093-098-252000- COASTAL PLAIN CITY SKY/WX TMP DP RH WIND PRES REMARKS AHOSKIE SUNNY 81 56 43 S10G16 30.29F CLINTON SUNNY 83 60 45 S5 30.29F ELIZABETHTOWN SUNNY 84 53 33 SE7 30.28F GOLDSBORO SUNNY 84 58 40 VRB3 30.26F GREENVILLE SUNNY 82 55 39 SW8G16 30.30F HAVELOCK SUNNY 79 57 46 S13 30.33F KENANSVILLE SUNNY 82 53 37 SW5 30.30F KINSTON SUNNY 84 52 32 S9 30.30F NEW BERN SUNNY 82 54 37 S10 30.33F RICHLANDS SUNNY 82 57 42 SE12G17 30.31F ROCKY MOUNT SUNNY 84 55 36 S10 30.28F WASHINGTON SUNNY 82 56 40 S8 30.30F WHITEVILLE SUNNY 83 58 42 SE7 30.29F $$ AMZ130-135-150-152-154-156-158-170-250-252-270-ANZ085-086-088-633-658-670-252000- MARINE OBSERVATIONS STATION/POSITION TIME TEMP WIND PRES WAVE SWELL AIR SEA DIR/SP/G HT/PER HT/PER (UTC) (F) (DEG/KT/KT) (MB) (FT/S) (FT/S) CHESAPEAKE LIGHT 1900 69 160/ 19/ 20 1026.8 64 E VA BEACH 1850 67 63 170/ 6/ 6 1027.5 1/ 8 2/ 8 DUCK 1900 70 65 130/ 14/ 16 1025.7 2 E DUCK 1811 66 N/A 1/ 9 OREGON INLET 1900 74 75 180/ 11/ 12 1027.2 13E OREGON INLT 1900 70 N/A 1/ 8 HATTERAS CG 1900 76 75 160/ 9/ 12 1027.0 DIAMOND BUOY 1850 74 78 170/ 10/ 14 1027.6 2/ 8 2/ 8 CAPE LOOKOUT 1900 74 130/ 10/ 10 1026.8 BEAUFORT LAB 1900 75 74 140/ 9/ 12 1026.3 27 SE WRIGHTSVLE 1900 72 77 160/ 8/ 8 N/A 5 SE WRIGHTSVLE 1808 75 77 160/ 8/ 12 1027.2 225 S CAPE HAT 1850 74 74 120/ 14/ 16 1026.7 3/ 6 2/ 7 41 SE CHARLESTON 1850 76 76 100/ 10/ 12 1025.3 3/ 7 3/ 7 $$

USA.gov is the U.S. government's official web portal to all federal, state and local government web resources and services.